Wildwood, NJ

4:41 PM EST on December 16, 2017 (GMT -0500)
Cape May County

Weather History for KWWD - May, 2013

Change the Weather History Date:

Friday, May 17, 2013

  Actual Average Record
Temperature  
Mean Temperature 70 °F -  
Max Temperature 75 °F 66 °F 82 °F (2015)
Min Temperature 60 °F 52 °F 46 °F (2003)
Cooling Degree Days 4    
Growing Degree Days 20 (Base 50)    
Moisture  
Dew Point 46 °F    
Average Humidity 45    
Maximum Humidity 63    
Minimum Humidity 34    
Precipitation  
Precipitation 0.00 in - - ()
Sea Level Pressure  
Sea Level Pressure 30.06 in    
Wind  
Wind Speed 8 mph (NW)    
Max Wind Speed 14 mph    
Max Gust Speed 18 mph    
Averages and records for this station are not official NWS values.
T = Trace of Precipitation, MM = Missing Value Source: NWS Daily Summary

Daily Weather History Graph

Daily Weather History Graph

Search for Another Location

Airport or City:

Trip Planner

Search our weather history database for the weather conditions in past years. The results will help you decide how hot, cold, wet, or windy it might be!

Date:

Astronomy

May. 17, 2013 Rise Set
Actual Time 5:44 AM EDT 8:07 PM EDT
Civil Twilight 5:14 AM EDT 8:38 PM EDT
Nautical Twilight 4:37 AM EDT 9:15 PM EDT
Astronomical Twilight 3:56 AM EDT 9:56 PM EDT
Moon 12:13 PM EDT (5/17) 1:00 AM EDT (5/17)
Length of Visible Light 15h 23m
Length of Day
14h 22m
Waxing Crescent, 45% of the Moon is Illuminated
May 17
Waxing Crescent
May 18
First Quarter
May 25
Full
May 31
Last Quarter
Jun 8
New

Hourly Weather History & Observations

Time (EDT) Temp. Dew Point Humidity Pressure Visibility Wind Dir Wind Speed Gust Speed Precip Events Conditions
12:15 AM - - N/A% 29.86 in - West 10.4 mph 16.1 mph N/A   Unknown
12:35 AM - - N/A% 29.87 in - West 10.4 mph 17.3 mph N/A   Unknown
12:55 AM - - N/A% 29.88 in - West 12.7 mph 16.1 mph N/A   Unknown
1:15 AM - - N/A% 29.88 in - WNW 10.4 mph 16.1 mph N/A   Unknown
1:35 AM - - N/A% 29.88 in - WNW 8.1 mph 18.4 mph N/A   Unknown
1:55 AM - - N/A% 29.89 in - WNW 10.4 mph - N/A   Unknown
2:15 AM - - N/A% 29.89 in - NW 8.1 mph - N/A   Unknown
2:35 AM - - N/A% 29.91 in - NW 5.8 mph - N/A   Unknown
2:55 AM - - N/A% 29.92 in - NNW 4.6 mph - N/A   Unknown
3:15 AM - - N/A% 29.92 in - NNW 3.5 mph - N/A   Unknown
3:35 AM - - N/A% 29.94 in - NNW 4.6 mph - N/A   Unknown
3:55 AM - - N/A% 29.94 in - NNW 3.5 mph - N/A   Unknown
4:15 AM - - N/A% 29.95 in - NNW 4.6 mph - N/A   Unknown
4:35 AM - - N/A% 29.95 in - Calm Calm - N/A   Unknown
4:55 AM - - N/A% 29.96 in - North 4.6 mph - N/A   Unknown
5:15 AM - - N/A% 29.97 in - North 6.9 mph - N/A   Unknown
5:35 AM - - N/A% 29.97 in - North 4.6 mph - N/A   Unknown
5:55 AM - - N/A% 29.99 in - NNW 3.5 mph - N/A   Unknown
6:15 AM - - N/A% 30.00 in - NNW 3.5 mph - N/A   Unknown
6:35 AM - - N/A% 30.01 in - NNW 3.5 mph - N/A   Unknown
6:55 AM - - N/A% 30.03 in - North 4.6 mph - N/A   Unknown
7:15 AM - - N/A% 30.04 in - NNW 5.8 mph - N/A   Unknown
7:35 AM 64.4 °F 50.0 °F 59% 30.05 in - North 4.6 mph - N/A   Clear
7:55 AM 66.2 °F 48.2 °F 52% 30.06 in - North 8.1 mph - N/A   Clear
8:15 AM 66.2 °F 46.4 °F 49% 30.07 in - NNE 9.2 mph - N/A   Clear
8:35 AM 66.2 °F 46.4 °F 49% 30.07 in - North 11.5 mph - N/A   Clear
8:55 AM 68.0 °F 44.6 °F 43% 30.08 in - North 11.5 mph - N/A   Clear
9:15 AM 69.8 °F 42.8 °F 38% 30.08 in - North 11.5 mph 16.1 mph N/A   Clear
9:35 AM - - N/A% 30.08 in - North 9.2 mph - N/A   Unknown
9:55 AM - - N/A% 30.08 in - North 9.2 mph 17.3 mph N/A   Unknown
10:15 AM 69.8 °F 42.8 °F 38% 30.09 in - NW 9.2 mph - N/A   Clear
10:35 AM - - N/A% 30.09 in - NNW 8.1 mph - N/A   Unknown
10:55 AM 69.8 °F 42.8 °F 38% 30.10 in - NW 8.1 mph - N/A   Clear
11:15 AM 71.6 °F 44.6 °F 38% 30.11 in - NW 8.1 mph - N/A   Clear
11:35 AM 71.6 °F 44.6 °F 38% 30.11 in - NW 6.9 mph - N/A   Clear
11:55 AM - - N/A% 30.10 in - WNW 9.2 mph - N/A   Unknown
12:15 PM - - N/A% 30.10 in - West 9.2 mph - N/A   Unknown
12:35 PM - - N/A% 30.10 in - West 10.4 mph - N/A   Unknown
12:55 PM 69.8 °F 44.6 °F 40% 30.11 in - West 10.4 mph - N/A   Clear
1:15 PM - - N/A% 30.10 in - WNW 11.5 mph - N/A   Unknown
1:35 PM - - N/A% 30.10 in - West 13.8 mph - N/A   Unknown
1:55 PM - - N/A% 30.10 in - West 12.7 mph - N/A   Unknown
2:15 PM - - N/A% 30.10 in - WNW 8.1 mph - N/A   Unknown
2:35 PM - - N/A% 30.10 in - West 8.1 mph - N/A   Unknown
3:15 PM - - N/A% 30.10 in - WNW 9.2 mph - N/A   Unknown
3:35 PM - - N/A% 30.09 in - WNW 8.1 mph - N/A   Unknown
3:55 PM 73.4 °F 46.4 °F 38% 30.09 in - WNW 9.2 mph - N/A   Clear
4:15 PM - - N/A% 30.09 in - WNW 10.4 mph - N/A   Unknown
4:35 PM 73.4 °F 44.6 °F 36% 30.10 in - West 9.2 mph - N/A   Clear
4:55 PM 75.2 °F 44.6 °F 34% 30.10 in - West 8.1 mph - N/A   Clear
5:15 PM - - N/A% 30.10 in - WNW 9.2 mph - N/A   Unknown
5:35 PM - - N/A% 30.11 in - West 8.1 mph - N/A   Unknown
5:55 PM 73.4 °F 46.4 °F 38% 30.11 in - West 4.6 mph - N/A   Clear
6:15 PM - - N/A% 30.11 in - SE 9.2 mph - N/A   Unknown
6:35 PM 66.2 °F 50.0 °F 56% 30.13 in - SSE 10.4 mph - N/A   Clear
6:55 PM 64.4 °F 50.0 °F 59% 30.13 in - SE 9.2 mph - N/A   Clear
7:15 PM - - N/A% 30.13 in - SE 8.1 mph - N/A   Unknown
7:35 PM - - N/A% 30.14 in - SE 8.1 mph - N/A   Unknown
7:55 PM - - N/A% 30.15 in - SE 8.1 mph - N/A   Unknown
8:15 PM - - N/A% 30.16 in - SE 8.1 mph - N/A   Unknown
8:35 PM 60.8 °F 48.2 °F 63% 30.17 in - SE 9.2 mph - N/A   Clear
8:55 PM - - N/A% 30.17 in - SE 8.1 mph - N/A   Unknown
9:15 PM - - N/A% 30.18 in - SE 9.2 mph - N/A   Overcast
9:35 PM - - N/A% 30.19 in - ESE 6.9 mph - N/A   Overcast
9:55 PM - - N/A% 30.19 in - SE 6.9 mph - N/A   Unknown
10:15 PM - - N/A% 30.19 in - ESE 8.1 mph - N/A   Unknown
10:35 PM - - N/A% 30.19 in - ESE 6.9 mph - N/A   Unknown
10:55 PM - - N/A% 30.19 in - ESE 8.1 mph - N/A   Unknown
11:15 PM - - N/A% 30.19 in - ESE 9.2 mph - N/A   Mostly Cloudy
11:35 PM - - N/A% 30.20 in - ESE 8.1 mph - N/A   Mostly Cloudy
11:55 PM - - N/A% 30.21 in - SE 8.1 mph - N/A   Unknown